Home   Weather   Hebron   Past weeks

Flag for Palestinian Territories Past Weather in Hebron, West Bank, Palestinian Territories — Yesterday and Last 2 Weeks

Now
81 °F

Sunny.


Feels Like: 82 °F
Forecast: 61 / 79 °F
Wind: 13 mph from Northwest

Location: Ben Gurion International Airport

Current Time: Sep 30, 2016 at 6:15:48 PM

Latest Report: Sep 30, 2016 at 5:50 PM


Visibility: 10 mi

Pressure: 29.92 "Hg (27.02 "Hg at 894m altitude)

Humidity: 54%

Dew Point: 63 °F

Location of HebronLocation

Past Weather in Hebron — Graph

°F

Hebron Temperature Yesterday

Maximum temperature yesterday: 86 °F (at 1:20 PM)
Minimum temperature yesterday: 68 °F (at 4:50 AM)
Average temperature yesterday: 78 °F

High & Low Weather Summary for the Past Weeks

 TemperatureHumidityPressure
High90 °F (Sep 18, 12:20 PM)83% (Sep 18, 6:20 AM)30.07 "Hg (Sep 18, 6:20 AM)
Low68 °F (Sep 25, 6:50 AM)24% (Sep 25, 11:50 AM)29.74 "Hg (Sep 25, 1:20 PM)
Average79 °F60%29.91 "Hg
* Reported Sep 15 4:20 PM — Sep 30 4:50 PM, Hebron, Weather by CustomWeather, © 2016

Note: Actual official high and low records may vary slightly from our data, if they occured in-between our weather recording intervals... More about our weather records

Advertising

Hebron Weather History for the Previous 24 Hours

Scroll right to see more
 ConditionsComfort  
Time TempWeatherWind HumidityBarometerVisibility
4:50 PM
Fri, Sep 30
82 °FSunny.13 mph48%29.92 "Hg10 mi
4:20 PM84 °FSunny.14 mph43%29.92 "Hg10 mi
3:50 PM84 °FSunny.14 mph45%29.92 "Hg10 mi
3:20 PM84 °FSunny.15 mph43%29.92 "Hg10 mi
2:50 PM86 °FSunny.14 mph43%29.92 "Hg10 mi
2:20 PM84 °FSunny.14 mph43%29.95 "Hg10 mi
1:50 PM84 °FSunny.14 mph43%29.95 "Hg10 mi
1:20 PM86 °FSunny.13 mph40%29.95 "Hg10 mi
12:50 PM86 °FSunny.13 mph40%29.95 "Hg10 mi
12:20 PM84 °FSunny.12 mph43%29.95 "Hg10 mi
11:50 AM84 °FSunny.7 mph40%29.98 "Hg10 mi
11:20 AM82 °FSunny.8 mph42%29.98 "Hg10 mi
10:50 AM82 °FSunny.7 mph42%29.98 "Hg10 mi
10:20 AM82 °FSunny.7 mph42%29.98 "Hg10 mi
9:50 AM82 °FSunny.2 mph45%29.98 "Hg10 mi
9:20 AM81 °FSunny.1 mph51%29.98 "Hg10 mi
8:50 AM77 °FSunny.2 mph54%29.98 "Hg10 mi
8:20 AM73 °FSunny.5 mph61%29.98 "Hg10 mi
7:50 AM72 °FSunny.5 mph65%29.98 "Hg10 mi
7:20 AM70 °FSunny.1 mph69%29.95 "Hg10 mi
6:50 AM68 °FSunny.2 mph73%29.95 "Hg10 mi
6:20 AM68 °FClear.1 mph73%29.95 "Hg10 mi
5:50 AM68 °FClear.1 mph73%29.95 "Hg10 mi
5:20 AM68 °FClear.1 mph78%29.95 "Hg10 mi
4:50 AM70 °FClear.2 mph73%29.95 "Hg10 mi
4:20 AM70 °FClear.3 mph73%29.95 "Hg10 mi
3:50 AM72 °FClear.3 mph69%29.95 "Hg10 mi
3:20 AM72 °FClear.3 mph69%29.98 "Hg10 mi
2:50 AM72 °FClear.3 mph69%29.98 "Hg10 mi
2:20 AM72 °FClear.3 mph69%29.98 "Hg10 mi
1:50 AM72 °FClear.2 mph69%29.98 "Hg10 mi
1:20 AM72 °FClear.3 mph73%29.98 "Hg10 mi
12:50 AM73 °FClear.3 mph69%29.98 "Hg10 mi
12:20 AM73 °FClear.3 mph69%29.98 "Hg10 mi
11:50 PM
Thu, Sep 29
73 °FClear.2 mph69%29.98 "Hg10 mi
11:20 PM75 °FClear.3 mph65%30.01 "Hg10 mi
10:50 PM75 °FClear.3 mph69%30.01 "Hg10 mi
10:20 PM75 °FClear.3 mph69%30.01 "Hg10 mi
9:50 PM77 °FClear.3 mph65%30.01 "Hg10 mi
9:20 PM77 °FClear.5 mph65%30.01 "Hg10 mi
8:50 PM77 °FClear.7 mph65%30.01 "Hg10 mi
8:20 PM79 °FClear.7 mph61%29.98 "Hg10 mi
7:50 PM79 °FClear.9 mph61%29.98 "Hg10 mi
7:20 PM79 °FClear.12 mph61%29.98 "Hg10 mi
6:50 PM79 °FClear.14 mph61%29.98 "Hg10 mi
6:20 PM81 °FSunny.16 mph58%29.95 "Hg10 mi
Weather by CustomWeather, © 2016

See weather overviewHow to use our weather pages